Weather History for West Plains, MO

Change the Weather History Date:

Wednesday, January 15, 2014

  Actual Average Record
Temperature  
Mean Temperature 28 °F 34 °F  
Max Temperature 35 °F 44 °F 71 °F (1996)
Min Temperature 21 °F 23 °F -5 °F (1979)
Degree Days  
Heating Degree Days 37 31  
Month to date heating degree days 541 465  
Since 1 July heating degree days 2298 2210  
Cooling Degree Days 0 0  
Month to date cooling degree days 0 0  
Year to date cooling degree days 0 0  
Moisture  
Dew Point 5 °F    
Average Humidity 43    
Maximum Humidity 62    
Minimum Humidity 23    
Precipitation  
Precipitation 0.00 in 0.06 in 0.65 in (1949)
Month to date precipitation 1.57 0.95  
Year to date precipitation 1.57 0.95  
Sea Level Pressure  
Sea Level Pressure 30.16 in    
Wind  
Wind Speed 8 mph (WNW)    
Max Wind Speed 18 mph    
Max Gust Speed 26 mph    
Visibility 10 miles    
Events      
T = Trace of Precipitation, MM = Missing Value Source: NWS Daily Summary

Daily Weather History Graph

Daily Weather History Graph

Search for Another Location

Airport:

Trip Planner

Search our weather history database for the weather conditions in past years. The results will help you decide how hot, cold, wet, or windy it might be!

Date:

Astronomy

Jan. 15, 2014 Rise Set
Actual Time 7:19 AM CST 5:14 PM CST
Civil Twilight 6:51 AM CST 5:43 PM CST
Nautical Twilight 6:19 AM CST 6:15 PM CST
Astronomical Twilight 5:48 AM CST 6:46 PM CST
Moon 5:11 PM CST (1/15) 6:37 AM CST (1/15)
Length of Visible Light 10h 51m
Length of Day
9h 55m
Full, 100% of the Moon is Illuminated
Jan 15
Full
Jan 15
Full
Jan 23
Last Quarter
Jan 30
New
Feb 6
First Quarter

Hourly Weather History & Observations

Time (CST) Temp. Windchill Dew Point Humidity Pressure Visibility Wind Dir Wind Speed Gust Speed Precip Events Conditions
12:53 AM 30.0 °F 20.5 °F 8.1 °F 40% 30.14 in 10.0 mi NW 11.5 mph - N/A   Clear
1:53 AM 28.9 °F 18.2 °F 7.0 °F 40% 30.16 in 10.0 mi NW 13.8 mph 23.0 mph N/A   Clear
2:53 AM 27.0 °F 15.6 °F 6.1 °F 41% 30.17 in 10.0 mi NW 13.8 mph 20.7 mph N/A   Clear
3:53 AM 25.0 °F 13.6 °F 8.1 °F 49% 30.17 in 10.0 mi NW 12.7 mph 21.9 mph N/A   Clear
4:53 AM 23.0 °F 13.9 °F 8.1 °F 53% 30.17 in 10.0 mi NW 8.1 mph - N/A   Clear
5:53 AM 21.9 °F 14.5 °F 9.0 °F 58% 30.17 in 10.0 mi WNW 5.8 mph - N/A   Clear
6:53 AM 21.9 °F 12.5 °F 10.0 °F 60% 30.18 in 10.0 mi NW 8.1 mph - N/A   Clear
7:53 AM 21.9 °F 13.4 °F 9.0 °F 58% 30.20 in 10.0 mi NW 6.9 mph - N/A   Clear
8:53 AM 24.1 °F 12.5 °F 9.0 °F 53% 30.22 in 10.0 mi NNW 12.7 mph - N/A   Clear
9:53 AM 26.1 °F 16.2 °F 9.0 °F 49% 30.24 in 10.0 mi NNW 10.4 mph 19.6 mph N/A   Clear
10:53 AM 28.0 °F 19.3 °F 8.1 °F 43% 30.24 in 10.0 mi NNW 9.2 mph - N/A   Clear
11:53 AM 30.0 °F 20.0 °F 6.1 °F 36% 30.21 in 10.0 mi NW 12.7 mph 19.6 mph N/A   Clear
12:53 PM 30.9 °F 22.2 °F 5.0 °F 33% 30.18 in 10.0 mi NW 10.4 mph - N/A   Clear
1:53 PM 33.1 °F 27.7 °F 3.9 °F 29% 30.17 in 10.0 mi West 5.8 mph 19.6 mph N/A   Clear
2:53 PM 34.0 °F 26.0 °F 1.0 °F 25% 30.15 in 10.0 mi WNW 10.4 mph - N/A   Clear
3:53 PM 34.0 °F 26.0 °F -0.9 °F 23% 30.16 in 10.0 mi West 10.4 mph - N/A   Clear
4:53 PM 32.0 °F 26.4 °F -2.9 °F 22% 30.16 in 10.0 mi Variable 5.8 mph - N/A   Clear
5:53 PM 26.1 °F - -0.9 °F 31% 30.15 in 10.0 mi Calm Calm - N/A   Clear
6:53 PM 23.0 °F 18.4 °F 1.0 °F 39% 30.14 in 10.0 mi SW 3.5 mph - N/A   Clear
7:53 PM 23.0 °F 17.0 °F 1.9 °F 40% 30.13 in 10.0 mi SW 4.6 mph - N/A   Clear
8:53 PM 23.0 °F 17.0 °F 3.0 °F 42% 30.10 in 10.0 mi South 4.6 mph - N/A   Clear
9:53 PM 25.0 °F 19.3 °F 1.9 °F 37% 30.07 in 10.0 mi South 4.6 mph - N/A   Clear
10:53 PM 27.0 °F 21.6 °F 1.0 °F 33% 30.06 in 10.0 mi South 4.6 mph - N/A   Overcast
11:53 PM 28.0 °F 20.8 °F 5.0 °F 38% 30.02 in 10.0 mi South 6.9 mph - N/A   Overcast